Details for Ryanair at EGPK




Go Back


Latest METAR
Local Time

EGPK 250450Z 00000KT CAVOK 09/07 Q1025

25/05/2018, 06:05:04

Description
Results
Ryanair Logo
Number of Pilots based at EGPK
1 Pilots Based here
Number of Ryanair Flights Departed from EGPK
2 Flights Departed
Number of Ryanair Flights Arrived at EGPK
3 Flights Arrived
Number of Ryanair Schedules Departing from EGPK
33 Schedules
Number of Ryanair Schedules Arriving at EGPK
33 Schedules
Number of Ryanair Schedules Departing from EGPK availible today
6 Schedules Today
Number of Ryanair Schedules Arriving at EGPK availible today
6 Schedules Today
Average Landing Rate at EGPK
-268 fpm
Ryanair Average Landing Rate at EGPK
-288 fpm
Total Fuel Purchased at EGPK by Ryanair
7,553.67 kgs / 16,652.82 lbs

Pilots Based at EGPK


Pilot ID
Pilot Name
Pilot Rank
No. of Flights
No. of Flying Hours
Shand Stewart
2
3.57
Content